QPF
0.00 0.00 0.00 0.00 0.00 0.00 0.00 0.00 0.00 0.00 0.00 0.00 0.00 0.00 0.00 0.00 0.00 0.00 0.00 0.00 0.00 0.00 0.00 0.00 0.00 0.00 0.00 0.00 0.00 0.00 0.00 0.00 0.00 0.00 0.00 0.00 0.00 0.00 0.00 0.00 0.00 0.00 0.01 0.02
0.00 0.00 0.00 0.00 0.00 0.00 0.00 0.00 0.00 0.00 0.00 0.00 0.00 0.00 0.00 0.00 0.00 0.00 0.00 0.00 0.00 0.00 0.00 0.00 0.00 0.00 0.00 0.00 0.00 0.00 0.00 0.00 0.00 0.00 0.00 0.00 0.00 0.00 0.00 0.00 0.00 0.00 0.00 0.01
0.00 0.00 0.00 0.00 0.00 0.00 0.00 0.00 0.00 0.00 0.00 0.00 0.00 0.00 0.00 0.00 0.00 0.00 0.00 0.00 0.00 0.00 0.00 0.00 0.00 0.00 0.00 0.00 0.00 0.00 0.00 0.00 0.00 0.00 0.00 0.00 0.00 0.00 0.00 0.00 0.00 0.00 0.00 0.00
0.00 0.00 0.00 0.00 0.00 0.00 0.00 0.00 0.00 0.00 0.00 0.00 0.00 0.00 0.00 0.00 0.00 0.00 0.00 0.00 0.00 0.00 0.00 0.00 0.00 0.00 0.00 0.00 0.00 0.00 0.00 0.00 0.00 0.00 0.00 0.00 0.00 0.00 0.00 0.00 0.00 0.00 0.00 0.00
0.00 0.00 0.00 0.00 0.00 0.00 0.00 0.00 0.00 0.00 0.00 0.00 0.00 0.00 0.00 0.00 0.00 0.00 0.00 0.00 0.00 0.00 0.00 0.00 0.00 0.00 0.00 0.00 0.00 0.00 0.00 0.00 0.00 0.00 0.00 0.00 0.00 0.00 0.00 0.00 0.00 0.00 0.00 0.00
0.00 0.00 0.00 0.00 0.00 0.00 0.00 0.00 0.00 0.00 0.00 0.00 0.00 0.00 0.00 0.00 0.00 0.00 0.00 0.00 0.00 0.00 0.00 0.00 0.00 0.00 0.00 0.00 0.00 0.00 0.00 0.00 0.00 0.00 0.00 0.00 0.00 0.00 0.00 0.00 0.00 0.01 0.00 0.00
0.00 0.00 0.00 0.00 0.00 0.00 0.00 0.00 0.00 0.00 0.00 0.00 0.00 0.00 0.00 0.00 0.00 0.00 0.00 0.00 0.00 0.00 0.00 0.00 0.00 0.00 0.00 0.00 0.00 0.00 0.00 0.00 0.00 0.00 0.00 0.00 0.00 0.00 0.00 0.00 0.00 0.01 0.00 0.00
0.00 0.00 0.00 0.00 0.00 0.00 0.00 0.00 0.00 0.00 0.00 0.00 0.00 0.00 0.00 0.00 0.00 0.00 0.00 0.00 0.00 0.00 0.00 0.00 0.00 0.00 0.00 0.00 0.00 0.00 0.00 0.00 0.00 0.00 0.00 0.00 0.00 0.00 0.00 0.00 0.00 0.00 0.00 0.00
0.00 0.00 0.00 0.00 0.00 0.00 0.00 0.00 0.00 0.00 0.00 0.00 0.00 0.00 0.00 0.00 0.00 0.00 0.00 0.00 0.00 0.00 0.00 0.00 0.00 0.00 0.00 0.00 0.00 0.00 0.00 0.00 0.00 0.00 0.00 0.00 0.00 0.00 0.00 0.00 0.00 0.00 0.01 0.01
0.00 0.00 0.00 0.00 0.00 0.00 0.00 0.00 0.00 0.00 0.00 0.00 0.00 0.00 0.00 0.00 0.00 0.00 0.00 0.00 0.00 0.00 0.00 0.00 0.00 0.00 0.00 0.00 0.00 0.00 0.00 0.00 0.00 0.00 0.00 0.00 0.00 0.00 0.00 0.00 0.00 0.00 0.01 0.02
0.00 0.00 0.00 0.00 0.00 0.00 0.00 0.00 0.00 0.00 0.00 0.00 0.00 0.00 0.00 0.00 0.00 0.00 0.00 0.00 0.00 0.00 0.00 0.00 0.00 0.00 0.00 0.00 0.00 0.00 0.00 0.00 0.00 0.00 0.00 0.00 0.00 0.00 0.00 0.00 0.00 0.00 0.00 0.01
0.00 0.00 0.00 0.00 0.00 0.00 0.00 0.00 0.00 0.00 0.00 0.00 0.00 0.00 0.00 0.00 0.00 0.00 0.00 0.00 0.00 0.00 0.00 0.00 0.00 0.00 0.00 0.00 0.00 0.00 0.00 0.00 0.00 0.00 0.00 0.00 0.00 0.00 0.00 0.00 0.00 0.00 0.00 0.01
0.00 0.00 0.00 0.00 0.00 0.00 0.00 0.00 0.00 0.00 0.00 0.00 0.00 0.00 0.00 0.00 0.00 0.00 0.00 0.00 0.00 0.00 0.00 0.00 0.00 0.00 0.00 0.00 0.00 0.00 0.00 0.00 0.00 0.00 0.00 0.00 0.00 0.00 0.00 0.00 0.00 0.00 0.00 0.00
0.00 0.00 0.00 0.00 0.00 0.00 0.00 0.00 0.00 0.00 0.00 0.00 0.00 0.00 0.00 0.00 0.00 0.00 0.00 0.00 0.00 0.00 0.00 0.00 0.00 0.00 0.00 0.00 0.00 0.00 0.00 0.00 0.00 0.00 0.00 0.00 0.00 0.00 0.00 0.00 0.00 0.00 0.00 0.00
0.00 0.00 0.00 0.00 0.00 0.00 0.00 0.00 0.00 0.00 0.00 0.00 0.00 0.00 0.00 0.00 0.00 0.00 0.00 0.00 0.00 0.00 0.00 0.00 0.00 0.00 0.00 0.00 0.00 0.00 0.00 0.00 0.00 0.00 0.00 0.00 0.00 0.00 0.00 0.00 0.00 0.00 0.00 0.00
0.00 0.00 0.00 0.00 0.00 0.00 0.00 0.00 0.00 0.00 0.00 0.00 0.00 0.00 0.00 0.00 0.00 0.00 0.00 0.00 0.00 0.00 0.00 0.00 0.00 0.00 0.00 0.00 0.00 0.00 0.00 0.00 0.00 0.00 0.00 0.00 0.00 0.00 0.00 0.00 0.00 0.00 0.00 0.00
0.00 0.00 0.00 0.00 0.00 0.00 0.00 0.00 0.00 0.00 0.00 0.00 0.00 0.00 0.00 0.00 0.00 0.00 0.00 0.00 0.00 0.00 0.00 0.00 0.00 0.00 0.00 0.00 0.00 0.00 0.00 0.00 0.00 0.00 0.00 0.00 0.00 0.00 0.00 0.00 0.00 0.00 0.00 0.00
0.00 0.00 0.00 0.00 0.00 0.00 0.00 0.00 0.00 0.00 0.00 0.00 0.00 0.00 0.00 0.00 0.00 0.00 0.00 0.00 0.00 0.00 0.00 0.00 0.00 0.00 0.00 0.00 0.00 0.00 0.00 0.00 0.00 0.00 0.00 0.00 0.00 0.00 0.00 0.00 0.00 0.00 0.00 0.00
0.00 0.00 0.00 0.00 0.00 0.00 0.00 0.00 0.00 0.00 0.00 0.00 0.00 0.00 0.00 0.00 0.00 0.00 0.00 0.00 0.00 0.00 0.00 0.00 0.00 0.00 0.00 0.00 0.00 0.00 0.00 0.00 0.00 0.00 0.00 0.00 0.00 0.00 0.00 0.00 0.00 0.00 0.00 0.00
0.00 0.00 0.00 0.00 0.00 0.00 0.00 0.00 0.00 0.00 0.00 0.00 0.00 0.00 0.00 0.00 0.00 0.00 0.00 0.00 0.00 0.00 0.00 0.00 0.00 0.00 0.00 0.00 0.00 0.00 0.00 0.00 0.00 0.00 0.00 0.00 0.00 0.00 0.00 0.00 0.00 0.00 0.00 0.00
0.00 0.00 0.00 0.00 0.00 0.00 0.00 0.00 0.00 0.00 0.00 0.00 0.00 0.00 0.00 0.00 0.00 0.00 0.00 0.00 0.00 0.00 0.00 0.00 0.00 0.00 0.00 0.00 0.00 0.00 0.00 0.00 0.00 0.00 0.00 0.00 0.00 0.00 0.00 0.00 0.00 0.00 0.00 0.00
0.00 0.00 0.00 0.00 0.00 0.00 0.00 0.00 0.00 0.00 0.00 0.00 0.00 0.00 0.00 0.00 0.00 0.00 0.00 0.00 0.00 0.00 0.00 0.00 0.00 0.00 0.00 0.00 0.00 0.00 0.00 0.00 0.00 0.00 0.00 0.00 0.00 0.00 0.00 0.00 0.00 0.00 0.00 0.00
0.00 0.00 0.00 0.00 0.00 0.00 0.00 0.00 0.00 0.00 0.00 0.00 0.00 0.00 0.00 0.00 0.00 0.00 0.00 0.00 0.00 0.00 0.00 0.00 0.00 0.00 0.00 0.00 0.00 0.00 0.00 0.00 0.00 0.00 0.00 0.00 0.00 0.00 0.00 0.00 0.00 0.00 0.00 0.00
0.00 0.00 0.00 0.00 0.00 0.00 0.00 0.00 0.00 0.00 0.00 0.00 0.00 0.00 0.00 0.00 0.00 0.00 0.00 0.00 0.00 0.00 0.00 0.00 0.00 0.00 0.00 0.00 0.00 0.00 0.00 0.00 0.00 0.00 0.00 0.00 0.00 0.00 0.00 0.00 0.00 0.00 0.00 0.00
0.00 0.00 0.00 0.00 0.00 0.00 0.00 0.00 0.00 0.00 0.00 0.00 0.00 0.00 0.00 0.00 0.00 0.00 0.00 0.00 0.00 0.00 0.00 0.00 0.00 0.00 0.00 0.00 0.00 0.00 0.00 0.00 0.00 0.00 0.00 0.00 0.00 0.00 0.00 0.00 0.00 0.00 0.00 0.00
0.00 0.00 0.00 0.00 0.00 0.00 0.00 0.00 0.00 0.00 0.00 0.00 0.00 0.00 0.00 0.00 0.00 0.00 0.00 0.00 0.00 0.00 0.00 0.00 0.00 0.00 0.00 0.00 0.00 0.00 0.00 0.01 0.01 0.01 0.01 0.01 0.01 0.01 0.01 0.01 0.00 0.00 0.00 0.00
0.00 0.00 0.00 0.00 0.00 0.00 0.00 0.00 0.00 0.00 0.00 0.00 0.00 0.00 0.00 0.00 0.00 0.00 0.00 0.00 0.00 0.00 0.00 0.00 0.00 0.00 0.00 0.01 0.01 0.01 0.01 0.01 0.02 0.02 0.02 0.02 0.02 0.02 0.02 0.02 0.01 0.01 0.01 0.01
MSLP
1020.46 1020.94 1021.45 1021.95 1022.37 1022.65 1022.74 1022.63 1022.30 1021.79 1021.13 1020.40 1019.66 1019.00 1018.44 1018.01 1017.71 1017.53 1017.41 1017.33 1017.25 1017.14 1017.00 1016.85 1016.70 1016.57 1016.49 1016.47 1016.50 1016.55 1016.61 1016.63 1016.59 1016.46 1016.24 1015.93 1015.55 1015.13 1014.68 1014.23 1013.79 1013.36 1012.92 1012.48
1020.48 1020.84 1021.18 1021.47 1021.67 1021.74 1021.67 1021.44 1021.07 1020.58 1020.01 1019.41 1018.85 1018.34 1017.93 1017.61 1017.37 1017.21 1017.08 1016.96 1016.83 1016.69 1016.54 1016.39 1016.28 1016.22 1016.21 1016.26 1016.36 1016.47 1016.57 1016.62 1016.58 1016.45 1016.22 1015.90 1015.51 1015.06 1014.60 1014.14 1013.68 1013.23 1012.78 1012.33
1020.54 1020.75 1020.90 1020.98 1020.96 1020.84 1020.60 1020.27 1019.85 1019.38 1018.90 1018.43 1018.01 1017.65 1017.36 1017.15 1016.98 1016.84 1016.71 1016.58 1016.43 1016.28 1016.13 1016.02 1015.95 1015.94 1016.01 1016.12 1016.28 1016.43 1016.55 1016.61 1016.58 1016.44 1016.20 1015.87 1015.46 1015.02 1014.55 1014.08 1013.62 1013.16 1012.71 1012.24
1020.65 1020.70 1020.67 1020.54 1020.33 1020.02 1019.65 1019.22 1018.77 1018.32 1017.89 1017.52 1017.21 1016.97 1016.79 1016.66 1016.55 1016.45 1016.34 1016.21 1016.07 1015.93 1015.81 1015.73 1015.71 1015.76 1015.87 1016.04 1016.22 1016.40 1016.53 1016.59 1016.55 1016.41 1016.16 1015.83 1015.44 1015.01 1014.55 1014.09 1013.64 1013.19 1012.73 1012.27
1020.78 1020.68 1020.49 1020.20 1019.83 1019.39 1018.90 1018.40 1017.92 1017.47 1017.08 1016.77 1016.53 1016.37 1016.26 1016.19 1016.12 1016.05 1015.96 1015.86 1015.74 1015.63 1015.55 1015.51 1015.53 1015.62 1015.77 1015.96 1016.16 1016.34 1016.47 1016.52 1016.47 1016.33 1016.10 1015.79 1015.42 1015.02 1014.61 1014.18 1013.75 1013.32 1012.88 1012.42
1020.88 1020.67 1020.36 1019.96 1019.48 1018.95 1018.40 1017.85 1017.34 1016.89 1016.52 1016.23 1016.03 1015.90 1015.81 1015.76 1015.72 1015.66 1015.59 1015.51 1015.42 1015.35 1015.30 1015.30 1015.36 1015.48 1015.65 1015.84 1016.04 1016.21 1016.32 1016.36 1016.32 1016.19 1015.98 1015.71 1015.40 1015.05 1014.69 1014.32 1013.94 1013.54 1013.12 1012.67
1020.87 1020.60 1020.23 1019.79 1019.27 1018.72 1018.15 1017.59 1017.07 1016.62 1016.24 1015.94 1015.73 1015.58 1015.49 1015.42 1015.36 1015.30 1015.24 1015.17 1015.10 1015.05 1015.04 1015.07 1015.15 1015.28 1015.44 1015.63 1015.81 1015.96 1016.06 1016.10 1016.06 1015.97 1015.80 1015.59 1015.35 1015.08 1014.79 1014.48 1014.15 1013.79 1013.40 1012.97
1020.71 1020.43 1020.08 1019.66 1019.17 1018.65 1018.12 1017.58 1017.08 1016.62 1016.23 1015.90 1015.65 1015.45 1015.30 1015.18 1015.08 1014.99 1014.90 1014.82 1014.76 1014.72 1014.72 1014.76 1014.84 1014.96 1015.11 1015.27 1015.43 1015.56 1015.66 1015.70 1015.69 1015.64 1015.54 1015.40 1015.24 1015.06 1014.85 1014.61 1014.35 1014.04 1013.68 1013.27
1020.37 1020.15 1019.88 1019.54 1019.15 1018.72 1018.25 1017.78 1017.31 1016.86 1016.45 1016.08 1015.77 1015.49 1015.26 1015.06 1014.89 1014.74 1014.61 1014.50 1014.41 1014.36 1014.34 1014.36 1014.42 1014.52 1014.64 1014.77 1014.90 1015.02 1015.11 1015.17 1015.21 1015.21 1015.18 1015.13 1015.06 1014.97 1014.84 1014.68 1014.47 1014.21 1013.89 1013.50
1019.89 1019.78 1019.62 1019.42 1019.16 1018.86 1018.51 1018.12 1017.70 1017.28 1016.86 1016.45 1016.06 1015.71 1015.38 1015.09 1014.83 1014.60 1014.39 1014.22 1014.09 1013.99 1013.93 1013.90 1013.92 1013.97 1014.05 1014.14 1014.24 1014.34 1014.44 1014.53 1014.61 1014.67 1014.73 1014.77 1014.79 1014.78 1014.73 1014.64 1014.49 1014.27 1013.99 1013.64
1019.36 1019.37 1019.36 1019.31 1019.20 1019.04 1018.82 1018.53 1018.19 1017.80 1017.38 1016.94 1016.50 1016.06 1015.65 1015.26 1014.91 1014.58 1014.30 1014.05 1013.83 1013.66 1013.53 1013.43 1013.38 1013.36 1013.37 1013.41 1013.48 1013.57 1013.67 1013.78 1013.91 1014.04 1014.17 1014.29 1014.39 1014.46 1014.49 1014.46 1014.36 1014.20 1013.95 1013.64
1018.89 1019.02 1019.14 1019.23 1019.27 1019.25 1019.14 1018.96 1018.69 1018.35 1017.95 1017.50 1017.02 1016.54 1016.06 1015.59 1015.15 1014.74 1014.36 1014.02 1013.71 1013.44 1013.21 1013.02 1012.87 1012.76 1012.69 1012.67 1012.68 1012.74 1012.83 1012.96 1013.12 1013.30 1013.49 1013.69 1013.86 1014.00 1014.09 1014.12 1014.07 1013.96 1013.76 1013.50
1018.56 1018.79 1019.01 1019.22 1019.37 1019.46 1019.46 1019.36 1019.17 1018.88 1018.51 1018.08 1017.60 1017.09 1016.57 1016.06 1015.55 1015.07 1014.61 1014.18 1013.77 1013.39 1013.05 1012.74 1012.47 1012.25 1012.07 1011.96 1011.90 1011.91 1011.97 1012.10 1012.27 1012.48 1012.71 1012.95 1013.18 1013.37 1013.52 1013.60 1013.61 1013.55 1013.41 1013.22
1018.43 1018.71 1019.01 1019.28 1019.51 1019.67 1019.74 1019.71 1019.58 1019.35 1019.03 1018.64 1018.18 1017.69 1017.17 1016.64 1016.11 1015.57 1015.05 1014.54 1014.03 1013.55 1013.08 1012.64 1012.24 1011.89 1011.59 1011.36 1011.21 1011.13 1011.14 1011.22 1011.37 1011.58 1011.82 1012.08 1012.33 1012.57 1012.76 1012.89 1012.96 1012.97 1012.91 1012.80
1018.48 1018.79 1019.11 1019.41 1019.67 1019.87 1019.98 1020.01 1019.93 1019.76 1019.50 1019.16 1018.76 1018.31 1017.82 1017.31 1016.78 1016.23 1015.66 1015.09 1014.50 1013.91 1013.32 1012.75 1012.21 1011.71 1011.28 1010.91 1010.64 1010.45 1010.37 1010.37 1010.46 1010.62 1010.84 1011.09 1011.35 1011.60 1011.82 1012.01 1012.14 1012.22 1012.25 1012.23
1018.67 1018.98 1019.29 1019.59 1019.85 1020.05 1020.18 1020.24 1020.20 1020.09 1019.89 1019.62 1019.30 1018.92 1018.49 1018.03 1017.52 1016.98 1016.40 1015.78 1015.13 1014.45 1013.76 1013.06 1012.38 1011.74 1011.16 1010.65 1010.23 1009.91 1009.70 1009.59 1009.58 1009.66 1009.81 1010.01 1010.25 1010.49 1010.73 1010.96 1011.15 1011.30 1011.42 1011.50
1018.91 1019.21 1019.50 1019.77 1020.02 1020.21 1020.34 1020.41 1020.41 1020.35 1020.22 1020.03 1019.78 1019.48 1019.13 1018.73 1018.27 1017.76 1017.18 1016.55 1015.85 1015.11 1014.33 1013.53 1012.73 1011.96 1011.24 1010.58 1010.01 1009.54 1009.18 1008.93 1008.79 1008.75 1008.79 1008.91 1009.09 1009.30 1009.54 1009.78 1010.02 1010.25 1010.45 1010.63
1019.11 1019.40 1019.68 1019.93 1020.16 1020.33 1020.47 1020.55 1020.57 1020.55 1020.48 1020.36 1020.19 1019.97 1019.70 1019.37 1018.96 1018.49 1017.93 1017.29 1016.58 1015.79 1014.96 1014.09 1013.20 1012.32 1011.48 1010.69 1009.98 1009.36 1008.84 1008.44 1008.14 1007.95 1007.86 1007.87 1007.95 1008.10 1008.30 1008.54 1008.81 1009.08 1009.36 1009.62
1019.23 1019.53 1019.80 1020.05 1020.26 1020.43 1020.55 1020.64 1020.69 1020.70 1020.68 1020.61 1020.51 1020.35 1020.14 1019.86 1019.51 1019.07 1018.54 1017.92 1017.21 1016.41 1015.56 1014.65 1013.71 1012.77 1011.84 1010.96 1010.13 1009.38 1008.72 1008.15 1007.69 1007.34 1007.10 1006.96 1006.92 1006.97 1007.11 1007.31 1007.57 1007.86 1008.18 1008.51
1019.26 1019.58 1019.87 1020.11 1020.32 1020.48 1020.61 1020.70 1020.77 1020.80 1020.80 1020.77 1020.71 1020.59 1020.42 1020.18 1019.86 1019.45 1018.95 1018.35 1017.66 1016.89 1016.04 1015.13 1014.19 1013.23 1012.27 1011.33 1010.43 1009.58 1008.80 1008.09 1007.48 1006.97 1006.56 1006.26 1006.08 1006.00 1006.03 1006.16 1006.36 1006.64 1006.96 1007.32
1019.23 1019.58 1019.89 1020.14 1020.35 1020.51 1020.64 1020.73 1020.79 1020.83 1020.85 1020.83 1020.77 1020.67 1020.52 1020.29 1019.99 1019.60 1019.12 1018.54 1017.89 1017.15 1016.34 1015.47 1014.57 1013.64 1012.69 1011.74 1010.82 1009.91 1009.05 1008.25 1007.51 1006.85 1006.28 1005.82 1005.47 1005.24 1005.13 1005.14 1005.25 1005.46 1005.75 1006.09
1019.21 1019.57 1019.88 1020.14 1020.34 1020.50 1020.62 1020.71 1020.76 1020.79 1020.79 1020.77 1020.70 1020.59 1020.42 1020.19 1019.88 1019.49 1019.03 1018.48 1017.86 1017.17 1016.42 1015.63 1014.79 1013.93 1013.04 1012.14 1011.23 1010.33 1009.43 1008.56 1007.73 1006.94 1006.23 1005.61 1005.09 1004.70 1004.43 1004.28 1004.27 1004.37 1004.57 1004.85
1019.20 1019.57 1019.87 1020.12 1020.31 1020.45 1020.55 1020.62 1020.65 1020.66 1020.64 1020.59 1020.49 1020.35 1020.15 1019.89 1019.57 1019.17 1018.71 1018.18 1017.60 1016.97 1016.29 1015.58 1014.84 1014.07 1013.27 1012.45 1011.61 1010.74 1009.85 1008.96 1008.07 1007.20 1006.37 1005.61 1004.93 1004.36 1003.91 1003.59 1003.41 1003.37 1003.45 1003.63
1019.23 1019.57 1019.85 1020.06 1020.23 1020.34 1020.41 1020.45 1020.46 1020.44 1020.39 1020.30 1020.17 1019.99 1019.76 1019.46 1019.11 1018.70 1018.23 1017.72 1017.16 1016.58 1015.97 1015.34 1014.70 1014.03 1013.35 1012.63 1011.87 1011.07 1010.23 1009.35 1008.44 1007.52 1006.60 1005.72 1004.90 1004.16 1003.53 1003.03 1002.68 1002.46 1002.38 1002.44
1019.27 1019.55 1019.78 1019.95 1020.07 1020.14 1020.18 1020.19 1020.17 1020.13 1020.05 1019.93 1019.77 1019.56 1019.29 1018.97 1018.58 1018.15 1017.67 1017.16 1016.62 1016.07 1015.51 1014.95 1014.40 1013.83 1013.24 1012.63 1011.97 1011.26 1010.48 1009.65 1008.75 1007.81 1006.83 1005.86 1004.92 1004.04 1003.25 1002.57 1002.02 1001.62 1001.38 1001.28
1019.24 1019.46 1019.62 1019.73 1019.81 1019.84 1019.85 1019.84 1019.80 1019.73 1019.64 1019.51 1019.33 1019.10 1018.81 1018.46 1018.05 1017.60 1017.10 1016.57 1016.04 1015.50 1014.98 1014.46 1013.96 1013.47 1012.97 1012.44 1011.87 1011.25 1010.55 1009.77 1008.91 1007.97 1006.98 1005.95 1004.93 1003.93 1002.99 1002.15 1001.43 1000.85 1000.43 1000.17
1019.08 1019.23 1019.33 1019.39 1019.42 1019.43 1019.42 1019.39 1019.35 1019.29 1019.20 1019.07 1018.89 1018.66 1018.36 1018.00 1017.58 1017.10 1016.58 1016.04 1015.49 1014.94 1014.42 1013.92 1013.45 1012.99 1012.54 1012.08 1011.58 1011.03 1010.40 1009.68 1008.87 1007.96 1006.98 1005.93 1004.85 1003.77 1002.73 1001.76 1000.89 1000.16 999.58 999.16
Thickness
5706 5709 5705 5704 5701 5690 5683 5679 5673 5681 5683 5697 5704 5704 5704 5703 5699 5695 5692 5689 5686 5682 5678 5674 5671 5667 5663 5659 5654 5649 5644 5639 5635 5631 5627 5624 5621 5619 5617 5616 5615 5614 5614 5616
5708 5710 5709 5707 5708 5700 5693 5691 5687 5687 5691 5710 5711 5710 5708 5706 5702 5698 5695 5693 5691 5687 5683 5678 5674 5670 5666 5661 5656 5651 5645 5641 5636 5632 5628 5624 5621 5618 5616 5614 5612 5611 5610 5611
5696 5703 5708 5703 5713 5708 5705 5702 5699 5695 5705 5717 5716 5714 5713 5711 5706 5703 5700 5697 5694 5690 5686 5682 5678 5674 5669 5664 5659 5653 5647 5642 5638 5633 5629 5625 5621 5617 5615 5612 5610 5609 5608 5609
5688 5701 5697 5711 5728 5722 5715 5715 5710 5710 5714 5717 5717 5719 5718 5716 5711 5708 5706 5702 5699 5695 5690 5687 5683 5678 5672 5666 5660 5655 5649 5644 5639 5635 5630 5626 5622 5618 5615 5612 5610 5608 5607 5607
5680 5687 5695 5717 5728 5725 5720 5718 5725 5719 5721 5722 5722 5719 5719 5723 5719 5715 5712 5708 5703 5699 5695 5690 5686 5681 5674 5668 5662 5657 5651 5647 5642 5637 5632 5627 5623 5619 5616 5612 5610 5608 5606 5605
5680 5691 5693 5713 5731 5735 5725 5713 5729 5727 5725 5722 5717 5705 5711 5726 5724 5719 5716 5711 5707 5702 5697 5692 5688 5683 5676 5670 5664 5659 5655 5650 5645 5639 5634 5629 5625 5621 5617 5613 5610 5608 5606 5604
5680 5685 5693 5717 5727 5729 5706 5706 5728 5729 5728 5719 5713 5715 5722 5726 5725 5722 5718 5714 5710 5704 5698 5695 5690 5684 5677 5672 5667 5664 5659 5653 5648 5643 5637 5632 5627 5623 5619 5615 5611 5608 5606 5604
5676 5684 5696 5717 5721 5713 5711 5721 5725 5727 5727 5721 5720 5722 5722 5724 5723 5720 5717 5714 5710 5704 5700 5697 5691 5685 5679 5675 5673 5667 5661 5656 5651 5646 5641 5637 5630 5625 5621 5617 5613 5609 5606 5605
5693 5696 5704 5706 5708 5709 5712 5715 5719 5721 5723 5722 5721 5720 5720 5720 5719 5718 5715 5713 5709 5704 5700 5697 5693 5687 5682 5681 5676 5670 5664 5659 5654 5649 5644 5639 5633 5628 5623 5619 5615 5611 5608 5605
5695 5701 5702 5700 5701 5703 5707 5710 5713 5716 5718 5719 5716 5717 5716 5715 5715 5713 5712 5710 5707 5703 5699 5697 5694 5690 5687 5684 5679 5672 5666 5661 5656 5651 5647 5642 5636 5631 5626 5622 5618 5614 5611 5608
5695 5698 5697 5698 5694 5696 5701 5705 5707 5709 5710 5710 5710 5709 5709 5709 5709 5709 5709 5707 5704 5701 5698 5698 5696 5692 5690 5685 5679 5673 5669 5664 5659 5655 5650 5645 5641 5636 5632 5627 5622 5618 5615 5611
5693 5691 5687 5687 5688 5690 5693 5695 5696 5698 5699 5700 5701 5700 5702 5702 5703 5703 5702 5702 5700 5699 5697 5697 5695 5692 5691 5687 5681 5675 5670 5667 5662 5657 5653 5648 5644 5641 5638 5634 5631 5627 5623 5618
5686 5688 5684 5683 5682 5682 5683 5685 5686 5687 5687 5688 5689 5691 5692 5692 5694 5695 5695 5695 5695 5695 5696 5695 5693 5692 5691 5688 5682 5678 5674 5671 5666 5661 5657 5652 5647 5643 5640 5639 5636 5633 5630 5626
5682 5681 5676 5673 5672 5672 5673 5675 5675 5675 5676 5677 5678 5679 5680 5681 5683 5684 5684 5686 5688 5689 5690 5689 5689 5689 5689 5687 5683 5680 5676 5674 5669 5664 5661 5656 5652 5648 5644 5640 5637 5636 5634 5632
5672 5671 5667 5664 5662 5662 5662 5663 5664 5663 5663 5664 5665 5666 5667 5667 5668 5669 5671 5675 5678 5679 5680 5680 5680 5682 5683 5682 5681 5679 5677 5674 5671 5667 5663 5659 5655 5651 5647 5643 5640 5638 5636 5634
5660 5657 5654 5652 5650 5650 5650 5650 5649 5647 5648 5648 5649 5650 5650 5651 5652 5654 5657 5661 5663 5664 5665 5666 5668 5671 5674 5675 5676 5676 5676 5676 5673 5668 5664 5660 5657 5653 5649 5646 5643 5641 5638 5637
5649 5644 5641 5638 5638 5636 5635 5634 5633 5632 5632 5633 5634 5634 5636 5637 5639 5640 5642 5644 5646 5647 5649 5651 5654 5659 5662 5665 5667 5670 5672 5673 5672 5669 5665 5663 5659 5657 5654 5650 5647 5645 5644 5643
5638 5634 5630 5627 5625 5622 5621 5620 5619 5619 5618 5619 5620 5620 5621 5621 5621 5623 5626 5629 5631 5633 5634 5635 5640 5645 5649 5653 5657 5661 5664 5666 5666 5666 5665 5663 5661 5659 5656 5653 5651 5649 5647 5645
5624 5621 5618 5616 5613 5610 5608 5606 5605 5604 5605 5605 5605 5604 5604 5604 5605 5607 5610 5613 5615 5617 5619 5621 5626 5630 5635 5639 5644 5649 5653 5657 5659 5660 5661 5661 5659 5657 5655 5653 5652 5651 5649 5646
5610 5608 5605 5603 5601 5599 5596 5593 5593 5592 5592 5592 5591 5590 5590 5589 5590 5592 5593 5593 5593 5595 5600 5606 5610 5614 5619 5624 5629 5633 5638 5643 5648 5651 5653 5653 5653 5654 5653 5652 5651 5650 5649 5648
5596 5595 5593 5590 5589 5587 5584 5582 5581 5580 5579 5579 5577 5576 5575 5574 5575 5576 5577 5578 5579 5581 5584 5588 5591 5596 5601 5606 5611 5616 5621 5626 5632 5637 5641 5644 5646 5647 5648 5649 5649 5648 5648 5648
5583 5581 5580 5578 5576 5574 5572 5570 5569 5568 5567 5566 5565 5563 5562 5561 5561 5560 5560 5560 5562 5566 5568 5569 5572 5577 5581 5585 5590 5594 5600 5606 5612 5618 5624 5629 5634 5638 5640 5642 5643 5645 5646 5646
5570 5569 5568 5566 5564 5562 5560 5559 5557 5556 5555 5554 5552 5550 5548 5546 5545 5544 5545 5547 5547 5549 5550 5550 5553 5557 5560 5562 5565 5570 5575 5581 5588 5595 5602 5609 5616 5623 5628 5632 5635 5638 5640 5641
5559 5558 5557 5555 5553 5550 5549 5548 5547 5545 5543 5542 5540 5539 5536 5533 5532 5531 5529 5530 5530 5531 5530 5530 5533 5535 5536 5537 5540 5543 5548 5554 5561 5568 5577 5586 5594 5603 5611 5617 5623 5628 5631 5634
5550 5548 5546 5544 5542 5541 5540 5538 5536 5534 5532 5529 5528 5526 5523 5519 5516 5516 5514 5512 5512 5512 5511 5511 5512 5512 5511 5511 5513 5516 5520 5525 5532 5539 5549 5559 5569 5579 5589 5597 5605 5613 5619 5624
5540 5538 5537 5535 5534 5532 5530 5527 5524 5522 5519 5517 5515 5513 5510 5507 5503 5500 5498 5496 5494 5493 5491 5490 5489 5489 5488 5488 5488 5491 5494 5498 5504 5511 5519 5530 5542 5554 5565 5575 5585 5595 5604 5611
5529 5527 5526 5525 5525 5523 5519 5516 5513 5511 5508 5504 5501 5499 5496 5493 5490 5486 5483 5481 5478 5476 5473 5471 5469 5468 5467 5466 5467 5468 5470 5473 5478 5485 5492 5502 5514 5527 5540 5552 5563 5574 5585 5595